This is the latest recevied weather packets stored in our database for station/object KA1JKB. If no packets are shown the sender has not sent any weather packets the latest 10 day(s).
| Time | Temp. | Humidity | Pressure | Rain* | Wind** | Luminosity | Snow |
|---|---|---|---|---|---|---|---|
| 1787941870 | 26.11° C | 52% | 1019.2 hPa | 0 mm | - | 671 W/m² | - |
| 1787941569 | 26.11° C | 47% | 1019.3 hPa | 0 mm | - | 690 W/m² | - |
| 1787941264 | 25.56° C | 49% | 1019.6 hPa | 0 mm | - | 685 W/m² | - |
| 1787940964 | 25.56° C | 48% | 1019.4 hPa | 0 mm | - | 675 W/m² | - |
| 1787940662 | 25.56° C | 53% | 1019.5 hPa | 0 mm | - | 675 W/m² | - |
| 1787940360 | 25.56° C | 52% | 1019.6 hPa | 0 mm | - | 684 W/m² | - |
| 1787940055 | 25.56° C | 52% | 1019.3 hPa | 0 mm | - | 681 W/m² | - |
| 1787939754 | 25° C | 54% | 1019.5 hPa | 0 mm | - | 681 W/m² | - |
| 1787939449 | 26.11° C | 53% | 1019.6 hPa | 0 mm | - | 692 W/m² | - |
| 1787939145 | 25.56° C | 53% | 1019.5 hPa | 0 mm | - | 695 W/m² | - |
| 1787938844 | 25° C | 51% | 1019.7 hPa | 0 mm | - | 679 W/m² | - |
| 1787938544 | 25.56° C | 52% | 1019.6 hPa | 0 mm | - | 671 W/m² | - |
| 1787938240 | 25° C | 53% | 1019.6 hPa | 0 mm | - | 694 W/m² | - |
| 1787937940 | 25° C | 50% | 1019.8 hPa | 0 mm | - | 691 W/m² | - |
| 1787937635 | 24.44° C | 52% | 1019.8 hPa | 0 mm | - | 684 W/m² | - |
| 1787937332 | 25° C | 52% | 1019.8 hPa | 0 mm | - | 674 W/m² | - |
| 1787937027 | 25° C | 52% | 1019.8 hPa | 0 mm | - | 685 W/m² | - |
| 1787936726 | 25.56° C | 56% | 1019.8 hPa | 0 mm | - | 681 W/m² | - |
| 1787936422 | 25.56° C | 55% | 1019.8 hPa | 0 mm | - | 683 W/m² | - |
| 1787936121 | 25° C | 53% | 1019.7 hPa | 0 mm | - | 688 W/m² | - |
| 1787935816 | 25° C | 53% | 1019.8 hPa | 0 mm | - | 703 W/m² | - |
| 1787935513 | 24.44° C | 48% | 1019.7 hPa | 0 mm | - | 704 W/m² | - |
| 1787935209 | 24.44° C | 50% | 1019.8 hPa | 0 mm | - | 731 W/m² | - |
| 1787934903 | 25° C | 53% | 1019.7 hPa | 0 mm | - | 732 W/m² | - |
| 1787934603 | 23.89° C | 56% | 1019.7 hPa | 0 mm | - | 739 W/m² | - |
* Rain latest hour (hover to see other rain measurements)
** Current wind speed in m/s (hover to see current wind gust speed)